| time (UTC) | temp F | wind direction | speed knots | gust knots | rain 1hr in | rain 24hr in | rain mn in | humidity % | barometer mb |
| 20260506121005 | 67 | 195 | 8.7 | 14.8 | 0.00 | 0.00 | 0.00 | 87 | 997.5 |
| 20260506120504 | 67 | 194 | 9.6 | 15.6 | 0.00 | 0.00 | 0.00 | 87 | 997.6 |
| 20260506120005 | 67 | 204 | 10.4 | 14.8 | 0.00 | 0.00 | 0.00 | 87 | 997.6 |
| 20260506115505 | 66 | 198 | 10.4 | 13.9 | 0.00 | 0.00 | 0.00 | 88 | 997.6 |
| 20260506115005 | 66 | 193 | 8.7 | 14.8 | 0.00 | 0.00 | 0.00 | 88 | 997.7 |
| 20260506114504 | 66 | 198 | 10.4 | 13.9 | 0.00 | 0.00 | 0.00 | 89 | 998.0 |
| 20260506114005 | 66 | 200 | 8.7 | 13.9 | 0.00 | 0.00 | 0.00 | 90 | 998.0 |
| 20260506113504 | 65 | 200 | 8.7 | 13.0 | 0.00 | 0.00 | 0.00 | 90 | 997.8 |
| 20260506112504 | 65 | 196 | 7.0 | 12.2 | 0.00 | 0.00 | 0.00 | 90 | 997.7 |
| 20260506112004 | 65 | 193 | 6.1 | 8.7 | 0.00 | 0.00 | 0.00 | 91 | 997.6 |
| 20260506111505 | 64 | 177 | 7.8 | 12.2 | 0.00 | 0.00 | 0.00 | 91 | 997.7 |
| 20260506111005 | 64 | 186 | 4.3 | 8.7 | 0.00 | 0.00 | 0.00 | 91 | 997.6 |
| 20260506110504 | 64 | 165 | 4.3 | 10.4 | 0.00 | 0.00 | 0.00 | 91 | 997.4 |
| 20260506110005 | 64 | 193 | 4.3 | 7.8 | 0.00 | 0.00 | 0.00 | 91 | 997.3 |
| 20260506105004 | 63 | 178 | 4.3 | 7.8 | 0.00 | 0.00 | 0.00 | 91 | 997.4 |
| 20260506104504 | 63 | 190 | 4.3 | 7.8 | 0.00 | 0.00 | 0.00 | 91 | 997.5 |
| 20260506104004 | 63 | 185 | 4.3 | 10.4 | 0.00 | 0.00 | 0.00 | 91 | 997.5 |
| 20260506103505 | 63 | 192 | 5.2 | 10.4 | 0.00 | 0.00 | 0.00 | 91 | 997.6 |
| 20260506103004 | 63 | 187 | 5.2 | 7.8 | 0.00 | 0.00 | 0.00 | 91 | 997.6 |
| 20260506102504 | 63 | 187 | 5.2 | 10.4 | 0.00 | 0.00 | 0.00 | 91 | 997.6 |
| 20260506102004 | 63 | 189 | 6.1 | 10.4 | 0.00 | 0.00 | 0.00 | 91 | 997.5 |
| 20260506101504 | 63 | 190 | 5.2 | 7.8 | 0.00 | 0.00 | 0.00 | 91 | 997.4 |
| 20260506101005 | 63 | 184 | 3.5 | 8.7 | 0.00 | 0.00 | 0.00 | 91 | 997.2 |
| 20260506100504 | 63 | 191 | 4.3 | 7.8 | 0.00 | 0.00 | 0.00 | 91 | 997.2 |
| 20260506100005 | 63 | 181 | 4.3 | 7.8 | 0.00 | 0.00 | 0.00 | 90 | 997.2 |
| 20260506094504 | 63 | 179 | 3.5 | 8.7 | 0.00 | 0.00 | 0.00 | 90 | 997.3 |
| 20260506094005 | 63 | 178 | 4.3 | 8.7 | 0.00 | 0.00 | 0.00 | 90 | 997.4 |
| 20260506093504 | 63 | 174 | 2.6 | 6.1 | 0.00 | 0.00 | 0.00 | 90 | 997.4 |
| 20260506093004 | 63 | 185 | 4.3 | 7.0 | 0.00 | 0.00 | 0.00 | 90 | 997.5 |
| 20260506092005 | 63 | 194 | 4.3 | 8.7 | 0.00 | 0.00 | 0.00 | 90 | 997.5 |
| 20260506091505 | 63 | 196 | 5.2 | 10.4 | 0.00 | 0.00 | 0.00 | 90 | 997.5 |
| 20260506091004 | 63 | 200 | 6.1 | 10.4 | 0.00 | 0.00 | 0.00 | 92 | 997.7 |
| 20260506090505 | 63 | 198 | 7.0 | 10.4 | 0.00 | 0.00 | 0.00 | 90 | 997.7 |
| 20260506090004 | 63 | 192 | 7.8 | 10.4 | 0.00 | 0.00 | 0.00 | 90 | 997.7 |
| 20260506085505 | 63 | 193 | 6.1 | 10.4 | 0.00 | 0.00 | 0.00 | 90 | 997.7 |
| 20260506085004 | 63 | 196 | 7.0 | 10.4 | 0.00 | 0.00 | 0.00 | 90 | 997.7 |
| 20260506084504 | 63 | 194 | 5.2 | 8.7 | 0.00 | 0.00 | 0.00 | 90 | 997.7 |
| 20260506084005 | 63 | 189 | 5.2 | 10.4 | 0.00 | 0.00 | 0.00 | 89 | 997.7 |
| 20260506083004 | 63 | 175 | 6.1 | 8.7 | 0.00 | 0.00 | 0.00 | 89 | 997.7 |
| 20260506082004 | 63 | 198 | 5.2 | 10.4 | 0.00 | 0.00 | 0.00 | 89 | 997.6 |
| 20260506081504 | 63 | 188 | 3.5 | 10.4 | 0.00 | 0.00 | 0.00 | 89 | 997.6 |
| 20260506081004 | 63 | 194 | 1.7 | 2.6 | 0.00 | 0.00 | 0.00 | 89 | 997.7 |
| 20260506080504 | 64 | 195 | 5.2 | 7.8 | 0.00 | 0.00 | 0.00 | 89 | 997.5 |
| 20260506073504 | 64 | 190 | 4.3 | 7.8 | 0.00 | 0.00 | 0.00 | 88 | 997.5 |
| 20260506073004 | 64 | 187 | 7.8 | 11.3 | 0.00 | 0.00 | 0.00 | 88 | 997.5 |
| 20260506071504 | 64 | 184 | 3.5 | 8.7 | 0.00 | 0.00 | 0.00 | 88 | 997.5 |
| 20260506071004 | 64 | 192 | 4.3 | 10.4 | 0.00 | 0.00 | 0.00 | 88 | 997.4 |
| 20260506070504 | 64 | 193 | 6.1 | 8.7 | 0.00 | 0.00 | 0.00 | 88 | 997.5 |
| 20260506061504 | 64 | 197 | 8.7 | 12.2 | 0.00 | 0.00 | 0.00 | 88 | 997.9 |
| 20260506061004 | 64 | 199 | 9.6 | 13.9 | 0.00 | 0.00 | 0.00 | 88 | 998.0 |
| 20260506060504 | 64 | 200 | 7.8 | 12.2 | 0.00 | 0.00 | 0.00 | 88 | 998.1 |
| 20260506051004 | 64 | 195 | 10.4 | 13.9 | 0.00 | 0.00 | 0.00 | 89 | 998.6 |
| 20260506050504 | 65 | 194 | 9.6 | 13.9 | 0.00 | 0.00 | 0.00 | 89 | 998.6 |
| 20260506044504 | 65 | 194 | 9.6 | 13.0 | 0.00 | 0.00 | 0.00 | 88 | 998.6 |
| 20260506044004 | 65 | 195 | 8.7 | 12.2 | 0.00 | 0.00 | 0.00 | 88 | 998.7 |
| 20260506043505 | 65 | 198 | 7.8 | 10.4 | 0.00 | 0.00 | 0.00 | 88 | 998.7 |
| 20260506042504 | 65 | 196 | 9.6 | 13.9 | 0.00 | 0.00 | 0.00 | 88 | 998.8 |
| 20260506042004 | 65 | 197 | 10.4 | 13.0 | 0.00 | 0.00 | 0.00 | 87 | 998.8 |
| 20260506041004 | 65 | 201 | 8.7 | 13.0 | 0.00 | 0.00 | 0.00 | 86 | 998.9 |
| 20260506040505 | 65 | 202 | 9.6 | 12.2 | 0.00 | 0.00 | 0.00 | 86 | 998.8 |
| 20260506040005 | 65 | 194 | 9.6 | 13.9 | 0.00 | 0.00 | 0.00 | 85 | 998.8 |
| 20260506035504 | 65 | 199 | 10.4 | 14.8 | 0.00 | 0.00 | 0.00 | 85 | 998.8 |
| 20260506035004 | 65 | 199 | 12.2 | 15.6 | 0.00 | 0.00 | 0.00 | 85 | 998.8 |
| 20260506034504 | 66 | 199 | 11.3 | 17.4 | 0.00 | 0.00 | 0.00 | 85 | 998.7 |
| 20260506034003 | 66 | 193 | 11.3 | 20.0 | 0.00 | 0.00 | 0.00 | 84 | 998.7 |
| 20260506033504 | 66 | 199 | 12.2 | 17.4 | 0.00 | 0.00 | 0.00 | 84 | 998.7 |
| 20260506033004 | 66 | 197 | 11.3 | 17.4 | 0.00 | 0.00 | 0.00 | 83 | 998.7 |
| 20260506032504 | 66 | 193 | 11.3 | 14.8 | 0.00 | 0.00 | 0.00 | 83 | 998.7 |
| 20260506032004 | 66 | 195 | 8.7 | 11.3 | 0.00 | 0.00 | 0.00 | 82 | 998.7 |
| 20260506031503 | 66 | 194 | 8.7 | 17.4 | 0.00 | 0.00 | 0.00 | 82 | 998.7 |
| 20260506031004 | 66 | 197 | 9.6 | 13.9 | 0.00 | 0.00 | 0.00 | 81 | 998.7 |
| 20260506030504 | 66 | 196 | 10.4 | 14.8 | 0.00 | 0.00 | 0.00 | 81 | 998.8 |
| 20260506030004 | 66 | 184 | 7.8 | 11.3 | 0.00 | 0.00 | 0.00 | 81 | 998.8 |
| 20260506025503 | 66 | 186 | 7.8 | 13.9 | 0.00 | 0.00 | 0.00 | 80 | 998.8 |
| 20260506025004 | 66 | 189 | 5.2 | 13.0 | 0.00 | 0.00 | 0.00 | 80 | 998.8 |
| 20260506024505 | 66 | 185 | 8.7 | 13.9 | 0.00 | 0.00 | 0.00 | 80 | 998.9 |
| 20260506024004 | 67 | 188 | 6.1 | 12.2 | 0.00 | 0.00 | 0.00 | 79 | 998.9 |
| 20260506022504 | 67 | 184 | 8.7 | 15.6 | 0.00 | 0.00 | 0.00 | 79 | 998.9 |
| 20260506021504 | 67 | 196 | 10.4 | 15.6 | 0.00 | 0.00 | 0.00 | 78 | 998.8 |
| 20260506021004 | 67 | 196 | 9.6 | 15.6 | 0.00 | 0.00 | 0.00 | 77 | 998.7 |
| 20260506020504 | 67 | 186 | 8.7 | 13.9 | 0.00 | 0.00 | 0.00 | 77 | 998.6 |
| 20260506020004 | 68 | 200 | 7.8 | 12.2 | 0.00 | 0.00 | 0.00 | 77 | 998.6 |
| 20260506015504 | 68 | 200 | 10.4 | 17.4 | 0.00 | 0.00 | 0.00 | 76 | 998.6 |
| 20260506015003 | 68 | 199 | 11.3 | 17.4 | 0.00 | 0.00 | 0.00 | 76 | 998.6 |
| 20260506014503 | 68 | 196 | 7.8 | 15.6 | 0.00 | 0.00 | 0.00 | 77 | 998.6 |
| 20260506014004 | 68 | 190 | 11.3 | 17.4 | 0.00 | 0.00 | 0.00 | 75 | 998.5 |
| 20260506013506 | 68 | 192 | 11.3 | 17.4 | 0.00 | 0.00 | 0.00 | 75 | 998.5 |
| 20260506013006 | 68 | 189 | 10.4 | 17.4 | 0.00 | 0.00 | 0.00 | 75 | 998.4 |
| 20260506012505 | 69 | 195 | 11.3 | 17.4 | 0.00 | 0.00 | 0.00 | 74 | 998.4 |
| 20260506012006 | 69 | 190 | 10.4 | 17.4 | 0.00 | 0.00 | 0.00 | 74 | 998.4 |
| 20260506011506 | 69 | 186 | 11.3 | 17.4 | 0.00 | 0.00 | 0.00 | 74 | 998.4 |
| 20260506011006 | 69 | 193 | 12.2 | 20.0 | 0.00 | 0.00 | 0.00 | 74 | 998.3 |
| 20260506010506 | 69 | 194 | 12.2 | 18.2 | 0.00 | 0.00 | 0.00 | 74 | 998.4 |
| 20260506010006 | 69 | 195 | 11.3 | 17.4 | 0.00 | 0.00 | 0.00 | 73 | 998.4 |
| 20260506005505 | 69 | 199 | 13.9 | 19.1 | 0.00 | 0.00 | 0.00 | 73 | 998.4 |
| 20260506005005 | 69 | 188 | 13.9 | 18.2 | 0.00 | 0.00 | 0.00 | 72 | 998.3 |
| 20260506003505 | 70 | 198 | 13.9 | 21.7 | 0.00 | 0.00 | 0.00 | 71 | 998.1 |
| 20260506002505 | 70 | 197 | 12.2 | 20.9 | 0.00 | 0.00 | 0.00 | 71 | 998.0 |
| 20260506002005 | 70 | 199 | 11.3 | 17.4 | 0.00 | 0.00 | 0.00 | 71 | 998.1 |
| 20260506001505 | 71 | 192 | 10.4 | 17.4 | 0.00 | 0.00 | 0.00 | 70 | 998.0 |
| 20260506000505 | 71 | 201 | 12.2 | 20.0 | 0.00 | 0.00 | 0.00 | 69 | 997.8 |
| 20260506000005 | 71 | 193 | 14.8 | 22.6 | 0.00 | 0.00 | 0.00 | 69 | 997.7 |
| 20260505235005 | 71 | 199 | 11.3 | 19.1 | 0.00 | 0.00 | 0.00 | 69 | 997.5 |
| 20260505234505 | 72 | 193 | 10.4 | 17.4 | 0.00 | 0.00 | 0.00 | 69 | 997.5 |
| 20260505234005 | 72 | 198 | 10.4 | 17.4 | 0.00 | 0.00 | 0.00 | 69 | 997.5 |
| 20260505233506 | 72 | 195 | 9.6 | 17.4 | 0.00 | 0.00 | 0.00 | 69 | 997.3 |
| 20260505233005 | 72 | 192 | 8.7 | 17.4 | 0.00 | 0.00 | 0.00 | 69 | 997.4 |
| 20260505232505 | 73 | 192 | 12.2 | 19.1 | 0.00 | 0.00 | 0.00 | 68 | 997.4 |
| 20260505232005 | 73 | 195 | 10.4 | 13.9 | 0.00 | 0.00 | 0.00 | 68 | 997.3 |
| 20260505231505 | 73 | 179 | 11.3 | 14.8 | 0.00 | 0.00 | 0.00 | 68 | 997.2 |
| 20260505230505 | 74 | 191 | 8.7 | 13.9 | 0.00 | 0.00 | 0.00 | 67 | 997.2 |
| 20260505230006 | 74 | 189 | 13.9 | 19.1 | 0.00 | 0.00 | 0.00 | 67 | 997.1 |
| 20260505225505 | 74 | 195 | 11.3 | 20.9 | 0.00 | 0.00 | 0.00 | 67 | 997.1 |
| 20260505224505 | 74 | 193 | 15.6 | 22.6 | 0.00 | 0.00 | 0.00 | 66 | 997.1 |
| 20260505224006 | 75 | 190 | 15.6 | 22.6 | 0.00 | 0.00 | 0.00 | 65 | 997.1 |
| 20260505223505 | 75 | 197 | 13.9 | 21.7 | 0.00 | 0.00 | 0.00 | 65 | 997.1 |
| 20260505223005 | 75 | 194 | 14.8 | 20.9 | 0.00 | 0.00 | 0.00 | 65 | 997.1 |
| 20260505222005 | 75 | 195 | 13.9 | 20.0 | 0.00 | 0.00 | 0.00 | 66 | 997.2 |
| 20260505221505 | 75 | 197 | 12.2 | 19.1 | 0.00 | 0.00 | 0.00 | 65 | 997.2 |
| 20260505221005 | 75 | 168 | 11.3 | 19.1 | 0.00 | 0.00 | 0.00 | 65 | 997.3 |
| 20260505220005 | 75 | 196 | 13.0 | 26.1 | 0.00 | 0.00 | 0.00 | 64 | 997.1 |
| 20260505215505 | 76 | 191 | 11.3 | 21.7 | 0.00 | 0.00 | 0.00 | 64 | 997.1 |
| 20260505215005 | 76 | 198 | 13.0 | 22.6 | 0.00 | 0.00 | 0.00 | 63 | 997.1 |
| 20260505214505 | 76 | 193 | 13.0 | 26.1 | 0.00 | 0.00 | 0.00 | 63 | 997.0 |
| 20260505214006 | 77 | 191 | 13.0 | 21.7 | 0.00 | 0.00 | 0.00 | 63 | 997.0 |
| 20260505213505 | 77 | 201 | 9.6 | 13.9 | 0.00 | 0.00 | 0.00 | 62 | 997.0 |
| 20260505213005 | 77 | 191 | 13.9 | 20.9 | 0.00 | 0.00 | 0.00 | 62 | 996.9 |
| 20260505212505 | 77 | 178 | 12.2 | 21.7 | 0.00 | 0.00 | 0.00 | 61 | 997.0 |
| 20260505212005 | 78 | 196 | 17.4 | 22.6 | 0.00 | 0.00 | 0.00 | 60 | 997.0 |
| 20260505211505 | 78 | 196 | 11.3 | 20.9 | 0.00 | 0.00 | 0.00 | 61 | 996.9 |
| 20260505211005 | 78 | 191 | 11.3 | 19.1 | 0.00 | 0.00 | 0.00 | 61 | 996.9 |
| 20260505210506 | 78 | 203 | 14.8 | 21.7 | 0.00 | 0.00 | 0.00 | 60 | 996.9 |
| 20260505210005 | 78 | 196 | 12.2 | 20.9 | 0.00 | 0.00 | 0.00 | 60 | 996.9 |
| 20260505205505 | 78 | 176 | 11.3 | 17.4 | 0.00 | 0.00 | 0.00 | 60 | 997.0 |
| 20260505205006 | 78 | 176 | 14.8 | 22.6 | 0.00 | 0.00 | 0.00 | 59 | 996.9 |
| 20260505204505 | 78 | 197 | 14.8 | 21.7 | 0.00 | 0.00 | 0.00 | 59 | 996.9 |
| 20260505204005 | 78 | 195 | 14.8 | 20.9 | 0.00 | 0.00 | 0.00 | 59 | 996.9 |
| 20260505203505 | 78 | 177 | 10.4 | 19.1 | 0.00 | 0.00 | 0.00 | 58 | 997.0 |
| 20260505203005 | 79 | 201 | 16.5 | 22.6 | 0.00 | 0.00 | 0.00 | 57 | 997.0 |
| 20260505202505 | 79 | 195 | 14.8 | 24.3 | 0.00 | 0.00 | 0.00 | 57 | 997.1 |
| 20260505202005 | 79 | 197 | 13.9 | 22.6 | 0.00 | 0.00 | 0.00 | 57 | 997.1 |
| 20260505201505 | 79 | 199 | 12.2 | 24.3 | 0.00 | 0.00 | 0.00 | 56 | 997.2 |
| 20260505201006 | 79 | 199 | 15.6 | 22.6 | 0.00 | 0.00 | 0.00 | 55 | 997.3 |
| 20260505200506 | 80 | 188 | 14.8 | 22.6 | 0.00 | 0.00 | 0.00 | 54 | 997.3 |
| 20260505200005 | 80 | 191 | 12.2 | 19.1 | 0.00 | 0.00 | 0.00 | 53 | 997.2 |
| 20260505195505 | 80 | 186 | 14.8 | 21.7 | 0.00 | 0.00 | 0.00 | 52 | 997.3 |
| 20260505195005 | 80 | 195 | 14.8 | 22.6 | 0.00 | 0.00 | 0.00 | 53 | 997.5 |
| 20260505194505 | 80 | 185 | 12.2 | 20.9 | 0.00 | 0.00 | 0.00 | 52 | 997.6 |
| 20260505194005 | 80 | 199 | 13.9 | 22.6 | 0.00 | 0.00 | 0.00 | 52 | 997.7 |
| 20260505193506 | 80 | 198 | 17.4 | 24.3 | 0.00 | 0.00 | 0.00 | 52 | 997.6 |
| 20260505193005 | 80 | 191 | 10.4 | 18.2 | 0.00 | 0.00 | 0.00 | 53 | 997.7 |
| 20260505192505 | 80 | 189 | 9.6 | 17.4 | 0.00 | 0.00 | 0.00 | 52 | 997.9 |
| 20260505192005 | 80 | 199 | 12.2 | 20.9 | 0.00 | 0.00 | 0.00 | 52 | 997.9 |
| 20260505191505 | 80 | 190 | 14.8 | 19.1 | 0.00 | 0.00 | 0.00 | 54 | 998.0 |
| 20260505191005 | 79 | 196 | 15.6 | 22.6 | 0.00 | 0.00 | 0.00 | 52 | 998.2 |
| 20260505190505 | 80 | 184 | 16.5 | 21.7 | 0.00 | 0.00 | 0.00 | 52 | 998.2 |
| 20260505190005 | 80 | 188 | 14.8 | 20.9 | 0.00 | 0.00 | 0.00 | 52 | 998.2 |
| 20260505185505 | 79 | 204 | 14.8 | 26.1 | 0.00 | 0.00 | 0.00 | 53 | 998.2 |
| 20260505185005 | 80 | 184 | 13.0 | 22.6 | 0.00 | 0.00 | 0.00 | 53 | 998.2 |
| 20260505184505 | 80 | 202 | 11.3 | 17.4 | 0.00 | 0.00 | 0.00 | 54 | 998.3 |
| 20260505184005 | 79 | 192 | 15.6 | 22.6 | 0.00 | 0.00 | 0.00 | 53 | 998.2 |
| 20260505183505 | 80 | 192 | 8.7 | 19.1 | 0.00 | 0.00 | 0.00 | 53 | 998.3 |
| 20260505183005 | 80 | 199 | 16.5 | 20.9 | 0.00 | 0.00 | 0.00 | 54 | 998.3 |
| 20260505182505 | 80 | 205 | 14.8 | 20.9 | 0.00 | 0.00 | 0.00 | 53 | 998.3 |
| 20260505182005 | 80 | 191 | 11.3 | 17.4 | 0.00 | 0.00 | 0.00 | 53 | 998.3 |
| 20260505181505 | 80 | 192 | 14.8 | 21.7 | 0.00 | 0.00 | 0.00 | 53 | 998.2 |
| 20260505181005 | 80 | 199 | 13.9 | 20.0 | 0.00 | 0.00 | 0.00 | 52 | 998.3 |
| 20260505180505 | 80 | 200 | 17.4 | 20.9 | 0.00 | 0.00 | 0.00 | 52 | 998.4 |
| 20260505180006 | 80 | 222 | 11.3 | 17.4 | 0.00 | 0.00 | 0.00 | 55 | 998.5 |
| 20260505175005 | 80 | 220 | 12.2 | 17.4 | 0.00 | 0.00 | 0.00 | 55 | 998.6 |
| 20260505174505 | 79 | 205 | 13.0 | 17.4 | 0.00 | 0.00 | 0.00 | 53 | 998.6 |
| 20260505174005 | 79 | 192 | 12.2 | 19.1 | 0.00 | 0.00 | 0.00 | 53 | 998.6 |
| 20260505173505 | 79 | 194 | 11.3 | 17.4 | 0.00 | 0.00 | 0.00 | 53 | 998.8 |
| 20260505173005 | 79 | 220 | 10.4 | 17.4 | 0.00 | 0.00 | 0.00 | 56 | 998.7 |
| 20260505172505 | 79 | 158 | 9.6 | 17.4 | 0.00 | 0.00 | 0.00 | 54 | 998.8 |
| 20260505171505 | 79 | 212 | 11.3 | 19.1 | 0.00 | 0.00 | 0.00 | 55 | 999.0 |
| 20260505171005 | 78 | 214 | 11.3 | 17.4 | 0.00 | 0.00 | 0.00 | 57 | 999.0 |
| 20260505170005 | 78 | 200 | 13.9 | 19.1 | 0.00 | 0.00 | 0.00 | 57 | 999.1 |
| 20260505165505 | 78 | 255 | 12.2 | 17.4 | 0.00 | 0.00 | 0.00 | 55 | 999.1 |
| 20260505165005 | 78 | 219 | 10.4 | 15.6 | 0.00 | 0.00 | 0.00 | 57 | 999.2 |
| 20260505164505 | 78 | 207 | 10.4 | 17.4 | 0.00 | 0.00 | 0.00 | 57 | 999.2 |
| 20260505164004 | 77 | 219 | 13.0 | 18.2 | 0.00 | 0.00 | 0.00 | 56 | 999.2 |
| 20260505163505 | 77 | 237 | 14.8 | 20.0 | 0.00 | 0.00 | 0.00 | 56 | 999.2 |
| 20260505163005 | 77 | 226 | 13.0 | 17.4 | 0.00 | 0.00 | 0.00 | 56 | 999.2 |
| 20260505162505 | 77 | 222 | 12.2 | 20.9 | 0.00 | 0.00 | 0.00 | 57 | 999.2 |
| 20260505162004 | 77 | 239 | 13.9 | 19.1 | 0.00 | 0.00 | 0.00 | 57 | 999.4 |
| 20260505161505 | 77 | 212 | 13.9 | 21.7 | 0.00 | 0.00 | 0.00 | 57 | 999.4 |
| 20260505161005 | 77 | 216 | 13.0 | 20.9 | 0.00 | 0.00 | 0.00 | 58 | 999.5 |
| 20260505160505 | 77 | 201 | 13.9 | 20.9 | 0.00 | 0.00 | 0.00 | 58 | 999.5 |
| 20260505153004 | 75 | 220 | 10.4 | 17.4 | 0.00 | 0.00 | 0.00 | 62 | 999.6 |
| 20260505152505 | 75 | 218 | 12.2 | 17.4 | 0.00 | 0.00 | 0.00 | 62 | 999.6 |
| 20260505151504 | 75 | 202 | 11.3 | 17.4 | 0.00 | 0.00 | 0.00 | 64 | 999.7 |
| 20260505151004 | 74 | 216 | 11.3 | 17.4 | 0.00 | 0.00 | 0.00 | 63 | 999.7 |
| 20260505150505 | 74 | 220 | 12.2 | 15.6 | 0.00 | 0.00 | 0.00 | 63 | 999.5 |
| 20260505140505 | 71 | 237 | 10.4 | 15.6 | 0.00 | 0.00 | 0.00 | 68 | 999.8 |
| 20260505125005 | 67 | 218 | 8.7 | 15.6 | 0.00 | 0.00 | 0.00 | 77 | 999.8 |
| 20260505124504 | 66 | 222 | 8.7 | 15.6 | 0.00 | 0.00 | 0.00 | 77 | 999.8 |
| 20260505124005 | 66 | 231 | 8.7 | 13.9 | 0.00 | 0.00 | 0.00 | 79 | 999.8 |
| 20260505123504 | 65 | 238 | 11.3 | 14.8 | 0.00 | 0.00 | 0.00 | 80 | 999.8 |
| 20260505123004 | 65 | 232 | 7.8 | 13.0 | 0.00 | 0.00 | 0.00 | 81 | 999.8 |
| 20260505122504 | 64 | 209 | 9.6 | 13.0 | 0.00 | 0.00 | 0.00 | 82 | 999.8 |